Location: Unspecified
(0.0000°N, 0.0000°E)
Time: 10:01:52
(UTC+00:00)

STARLINK-1053 - Pass Details

Date: 12 December 2019
Orbit: 549 x 550 km, 53.0° (Epoch: 12 August)

Event Time Altitude Azimuth Distance (km) Brightness Sun altitude
Rises 18:56:55 0° 208° (SSW) 2,814 8.1 -14.5°
Reaches altitude 10° 18:59:14 10° 204° (SSW) 1,904 7.1 -15.0°
Maximum altitude 19:03:31 61° 124° (SE) 657 3.8 -16.0°
Enters shadow 19:05:23 31° 55° (NE) 1,016 4.4 -16.4°
